User: anonymous   Login
Location: Unspecified
(0.0000°N, 0.0000°E)
Time: 20:20:59
(UTC+00:00)
Language:

OBJECT C - Orbit

View from above orbital plane
View from above orbital plane
View from above satellite
View from above satellite

Ground track
Ground track

The orbit is defined by the following mean orbital elements,

1 62727U          26145.61689462 +.00000000 +00000-0 +40947-3 0 00004
2 62727  97.4265 221.2340 0006645 357.6386   2.4820 15.26969545    00
Epoch (UTC): 25 May 2026 14:48:19
Eccentricity: 0.0006645
inclination: 97.4265°
perigee height: 480 km
apogee height: 489 km
right ascension of ascending node: 221.2340°
argument of perigee: 357.6386°
revolutions per day: 15.26969545
mean anomaly at epoch: 2.4820°

The dashed part of the orbit path shows where the satellite is in the earth's shadow,  

DLR